[[{"header":{"parameterUnit":"m.s-1","parameterCategory":1,"la1":30.2991,"la2":30.254,"lo1":-89.0895,"lo2":-89.0444,"dy":0.0017,"dx":0.0017,"nx":28,"ny":28,"refTime":"2025-07-14T03:00:00:Z","depth":0,"parameterNumber":2,"parameterNumberName":"U-component_of_WINDS"},"data":[0,0,0,0,0,0,0,0,0,0,0,0,0,0,0,0,0,0,0,0,0,0,0,0,0,0,0,0,0,0,0,0,0,0,0,0,0,0,0,0,0,0,0,0,0,0,0,0,0,0,0,0,0,0,0,0,0,0,1.4292,1.4293,0,1.44,1.4401,1.4402,1.4409,1.4408,1.4407,1.4406,1.4521,1.4525,1.4529,0,0,0,0,0,0,0,0,0,0,0,0,0,1.4095,1.4099,1.4292,1.4293,1.4294,1.44,1.4401,1.4403,1.441,1.4408,1.4407,1.4405,1.4519,1.4524,1.4529,0,0,0,0,0,0,0,0,0,0,0,0,0,1.419,1.41,1.4291,1.431,1.4313,1.44,1.4401,1.4403,1.441,1.4408,1.4406,1.4405,1.4518,1.4524,1.453,1.4606,0,0,1.4549,1.4552,0,0,0,0,0,0,0,0,1.4184,1.4197,1.4306,1.4309,1.4312,1.4389,1.4374,1.4471,1.441,1.4373,1.4406,1.4404,1.4479,1.4488,1.4513,1.4611,1.4616,1.455,1.4554,1.4556,1.4558,0,0,0,0,0,0,0,1.4178,1.4192,1.4335,1.4308,1.4312,1.4315,1.4326,1.4393,1.4435,1.4376,1.4377,1.439,1.448,1.4506,1.4515,1.4618,1.455,1.4555,1.4559,1.4562,1.4786,1.4788,0,0,0,0,0,0,1.4167,1.4187,1.4331,1.4338,1.4242,1.432,1.4333,1.4367,1.4434,1.4443,1.4391,1.439,1.4497,1.4508,1.4519,1.4614,1.4556,1.4562,1.4566,1.4784,1.4787,1.4789,0,0,0,0,0,0,1.4163,1.418,1.4327,1.4263,1.4282,1.4325,1.4363,1.437,1.4396,1.4446,1.4454,1.441,1.4496,1.451,1.4584,1.4618,1.4565,1.4571,1.4781,1.4785,1.4788,1.4802,0,0,0,0,0,0,1.4157,1.4178,1.4206,1.4263,1.4285,1.4389,1.4365,1.4373,1.4406,1.4405,1.4465,1.4474,1.4495,1.4575,1.4591,1.4625,1.4576,1.4779,1.4783,1.4787,1.4799,1.4806,1.4811,0,0,0,0,0,1.415,1.4207,1.4208,1.4225,1.4321,1.4391,1.4403,1.4426,1.4409,1.4439,1.4471,1.4472,1.4611,1.4582,1.46,1.4637,1.4777,1.4782,1.4786,1.4796,1.4804,1.4811,0,0,0,0,0,0,1.4154,1.4214,1.4216,1.4293,1.4336,1.4391,1.4429,1.4433,1.4484,1.4481,1.4508,1.4522,1.4595,1.4624,1.459,1.4715,1.4692,1.4701,1.4694,1.4702,1.4708,1.47,1.4581,0,0,0,0,0,1.4163,1.4213,1.4264,1.4327,1.4349,1.4385,1.4416,1.443,1.4477,1.4496,1.4533,1.458,1.4634,1.467,1.4722,1.4803,1.4817,1.4838,1.4844,1.4849,1.4856,1.4902,1.4912,1.4805,1.4805,1.4805,0,0,1.4184,1.4223,1.4253,1.4329,1.4364,1.4417,1.4401,1.4457,1.4497,1.4505,1.4577,1.4606,1.466,1.4738,1.4774,1.4764,1.4889,1.4855,1.4858,1.4863,1.4908,1.4918,1.4927,1.4808,1.4808,1.4807,0,0,1.4248,1.4282,1.4338,1.4374,1.4428,1.4452,1.4466,1.4521,1.454,1.4612,1.462,1.4668,1.4761,1.48,1.4832,1.4912,1.4915,1.4928,1.496,1.5005,1.5014,1.5021,1.5051,1.5061,1.4935,1.4936,1.4936,0,1.4267,1.4345,1.4367,1.4424,1.4457,1.4466,1.4524,1.4558,1.4627,1.4651,1.4638,1.4756,1.4793,1.488,1.49,1.4925,1.4942,1.4922,1.501,1.5018,1.5026,1.5054,1.5065,1.4937,1.4937,1.4937,1.4936,0,1.4367,1.4421,1.446,1.4525,1.4564,1.4621,1.4653,1.4689,1.47,1.4726,1.48,1.4845,1.4907,1.4929,1.4941,1.5019,1.5011,1.5004,1.4982,1.5037,1.5064,1.5075,1.4939,1.4938,1.4938,1.4938,0,0,1.4435,1.4512,1.4526,1.4556,1.4617,1.466,1.4719,1.4779,1.481,1.4857,1.4908,1.4987,1.4981,1.5017,1.5033,1.5072,1.5134,1.506,1.5062,1.5073,1.5224,1.5229,1.5241,1.5136,1.5138,1.514,1.522,0,1.4507,1.4609,1.4631,1.472,1.4772,1.4781,1.4832,1.4876,1.4902,1.4951,1.498,1.5036,1.5023,1.5046,1.5085,1.5118,1.5165,1.5112,1.5185,1.5187,1.5171,1.5255,1.5261,1.5334,1.5231,1.5232,1.5234,0,1.4603,1.4652,1.4746,1.48,1.4823,1.4868,1.4926,1.4972,1.5022,1.5038,1.5079,1.5091,1.5154,1.5128,1.5216,1.518,1.5211,1.5232,1.5236,1.5243,1.5214,1.5266,1.5357,1.5368,1.5251,1.5249,1.5248,0,1.4645,1.4734,1.4802,1.4828,1.4893,1.4925,1.4953,1.5002,1.5037,1.5088,1.5111,1.5169,1.5201,1.5246,1.5274,1.5253,1.536,1.5337,1.5377,1.5376,1.5399,1.5397,1.5497,1.5418,1.5418,1.5418,1.5418,0,1.4722,1.478,1.4822,1.4864,1.4929,1.4954,1.5019,1.5048,1.5091,1.514,1.5152,1.5198,1.5232,1.5283,1.5306,1.5375,1.539,1.5406,1.5411,1.5405,1.5403,1.5426,1.5422,1.5421,1.542,1.542,1.5419,0,1.478,1.481,1.4885,1.4941,1.4956,1.5001,1.505,1.5092,1.5118,1.518,1.5196,1.5239,1.5299,1.5332,1.5408,1.5424,1.5502,1.5505,1.5485,1.5487,1.5525,1.5521,1.5644,1.5661,1.5571,1.5571,1.5572,0,1.4827,1.4871,1.4932,1.4965,1.4994,1.5047,1.5083,1.5111,1.5148,1.5209,1.5244,1.5305,1.5355,1.5453,1.5491,1.555,1.5554,1.5593,1.5563,1.5556,1.5556,1.5553,1.5558,1.5598,1.5599,1.56,1.5601,0,1.4909,1.4922,1.4972,1.5028,1.5071,1.5116,1.5162,1.5189,1.5224,1.5266,1.5327,1.5367,1.5445,1.5506,1.5568,1.5599,1.5607,1.561,1.5622,1.5616,1.5603,1.5611,1.5499,1.5607,1.5606,1.5606,1.5605,1.5605,1.4963,1.5003,1.5052,1.5108,1.5145,1.5188,1.523,1.5262,1.5313,1.5378,1.5392,1.5458,1.5508,1.5592,1.5625,1.5678,1.5671,1.5689,1.5693,1.5697,1.5699,1.5594,1.569,1.569,1.569,1.5689,1.5689,0,1.5045,1.5077,1.5129,1.5192,1.5236,1.5238,1.5289,1.5327,1.5384,1.543,1.5479,1.5551,1.5611,1.5654,1.5716,1.575,1.5755,1.5765,1.5763,1.577,1.5702,1.5685,1.576,1.576,1.576,1.576,1.576,1.576,1.5093,1.5161,1.5181,1.5268,1.53,1.5363,1.5393,1.5432,1.5469,1.5549,1.5598,1.5625,1.5671,1.5736,1.5791,1.5803,1.5825,1.5835,1.5847,1.5783,1.5775,1.5768,1.5752,1.584,1.584,1.5911,1.5911,1.5912]},{"header":{"parameterUnit":"m.s-1","parameterCategory":1,"la1":30.2991,"la2":30.254,"lo1":-89.0895,"lo2":-89.0444,"dy":0.0017,"dx":0.0017,"nx":28,"ny":28,"refTime":"2025-07-14T03:00:00:Z","depth":0,"parameterNumber":3,"parameterNumberName":"V-component_of_WINDS"},"data":[0,0,0,0,0,0,0,0,0,0,0,0,0,0,0,0,0,0,0,0,0,0,0,0,0,0,0,0,0,0,0,0,0,0,0,0,0,0,0,0,0,0,0,0,0,0,0,0,0,0,0,0,0,0,0,0,0,0,1.2809,1.2809,0,1.2776,1.2776,1.2775,1.2746,1.2746,1.2746,1.2745,1.2709,1.2709,1.2708,0,0,0,0,0,0,0,0,0,0,0,0,0,1.2842,1.2842,1.2809,1.2809,1.2808,1.2776,1.2776,1.2775,1.2746,1.2746,1.2746,1.2745,1.271,1.2709,1.2708,0,0,0,0,0,0,0,0,0,0,0,0,0,1.2821,1.2842,1.2809,1.279,1.2788,1.2776,1.2776,1.2775,1.2747,1.2746,1.2746,1.2745,1.271,1.2709,1.2708,1.2712,0,0,1.2705,1.2704,0,0,0,0,0,0,0,0,1.2822,1.2819,1.2793,1.2791,1.2789,1.2765,1.2774,1.2754,1.2747,1.2762,1.2745,1.2745,1.2728,1.2726,1.272,1.271,1.2708,1.2705,1.2704,1.2704,1.2704,0,0,0,0,0,0,0,1.2823,1.2821,1.2796,1.2793,1.279,1.2782,1.2778,1.277,1.2748,1.2761,1.2759,1.2755,1.2727,1.2721,1.2719,1.2708,1.2705,1.2704,1.2703,1.2703,1.2694,1.2695,0,0,0,0,0,0,1.2828,1.2822,1.2797,1.2795,1.2805,1.2781,1.2777,1.2773,1.2748,1.2744,1.2756,1.2754,1.2723,1.2721,1.2718,1.2718,1.2704,1.2703,1.2702,1.2694,1.2694,1.2695,0,0,0,0,0,0,1.2829,1.2826,1.2798,1.2808,1.2804,1.2781,1.2777,1.2773,1.2767,1.2744,1.274,1.2755,1.2723,1.2719,1.2713,1.2716,1.2702,1.2702,1.2694,1.2694,1.2695,1.272,0,0,0,0,0,0,1.283,1.2827,1.2829,1.2808,1.2803,1.2795,1.2777,1.2772,1.2766,1.2763,1.2742,1.2738,1.2722,1.2714,1.2712,1.2715,1.2701,1.2693,1.2694,1.2694,1.2719,1.2721,1.2724,0,0,0,0,0,1.2832,1.2838,1.283,1.2827,1.2806,1.2796,1.2793,1.2775,1.2767,1.2768,1.2752,1.2739,1.2717,1.2714,1.2711,1.2714,1.2693,1.2694,1.2694,1.2718,1.2721,1.2724,0,0,0,0,0,0,1.2861,1.2835,1.2826,1.2826,1.2813,1.2791,1.2792,1.2779,1.2768,1.2766,1.2744,1.2739,1.2734,1.2723,1.2721,1.2714,1.2703,1.2703,1.2721,1.2724,1.2727,1.2729,1.27,0,0,0,0,0,1.2867,1.2862,1.2839,1.2841,1.2836,1.2815,1.281,1.2797,1.2782,1.2777,1.2761,1.2747,1.2736,1.2729,1.2719,1.2717,1.271,1.2717,1.2719,1.2722,1.2722,1.2717,1.2719,1.2698,1.2698,1.2697,0,0,1.288,1.2866,1.2864,1.2847,1.2836,1.2828,1.2811,1.2805,1.2799,1.2776,1.2768,1.2756,1.2738,1.2733,1.273,1.2723,1.2726,1.2723,1.2724,1.2723,1.2718,1.272,1.2721,1.2698,1.2698,1.2698,0,0,1.29,1.289,1.2889,1.2878,1.286,1.2846,1.2846,1.2825,1.2816,1.2808,1.2789,1.2781,1.2764,1.2751,1.2742,1.2754,1.274,1.2751,1.2763,1.2759,1.276,1.2762,1.2763,1.2765,1.2751,1.2751,1.2751,0,1.2919,1.2909,1.289,1.2885,1.2877,1.2855,1.2852,1.2842,1.2822,1.2816,1.2809,1.2785,1.2772,1.2762,1.2764,1.2759,1.2756,1.2753,1.2762,1.2763,1.2764,1.2765,1.2766,1.2752,1.2752,1.2752,1.2752,0,1.2931,1.2924,1.2925,1.2906,1.2898,1.2894,1.2873,1.2867,1.2854,1.2839,1.283,1.2812,1.2796,1.2793,1.2781,1.278,1.2777,1.2766,1.2754,1.2767,1.2768,1.2769,1.2754,1.2754,1.2753,1.2753,0,0,1.2969,1.2938,1.2939,1.2928,1.2907,1.29,1.2894,1.2878,1.2872,1.2858,1.2851,1.2835,1.2825,1.2815,1.28,1.2796,1.2803,1.2786,1.2785,1.2788,1.2799,1.2806,1.2807,1.2794,1.2794,1.2794,1.2799,0,1.2984,1.2973,1.2955,1.2949,1.2941,1.2918,1.2912,1.2897,1.2883,1.2873,1.2856,1.2845,1.2833,1.2826,1.2821,1.2804,1.2805,1.2803,1.2785,1.2785,1.2789,1.2808,1.2816,1.2822,1.28,1.28,1.28,0,1.3001,1.2988,1.2981,1.2957,1.2953,1.2948,1.2931,1.2922,1.2903,1.2892,1.288,1.2864,1.2853,1.2843,1.2827,1.2826,1.2817,1.2807,1.2807,1.2804,1.2793,1.2804,1.2824,1.2825,1.2801,1.2801,1.2801,0,1.3027,1.3008,1.3,1.2992,1.2965,1.2961,1.295,1.293,1.2921,1.2905,1.2899,1.2882,1.2872,1.2859,1.2837,1.2832,1.2823,1.2811,1.2812,1.2813,1.2811,1.2811,1.2829,1.2807,1.2807,1.2807,1.2807,0,1.3045,1.3041,1.3011,1.3007,1.3001,1.2978,1.2973,1.2958,1.2941,1.2932,1.2911,1.2903,1.2876,1.2863,1.2846,1.2834,1.283,1.282,1.2815,1.2821,1.2822,1.2815,1.2813,1.2807,1.2807,1.2807,1.2807,0,1.3073,1.3053,1.3043,1.3017,1.3011,1.3007,1.2984,1.2978,1.2961,1.295,1.2945,1.292,1.2904,1.2881,1.2858,1.2847,1.2836,1.283,1.2843,1.284,1.2841,1.2841,1.2854,1.2854,1.2834,1.2834,1.2834,0,1.3085,1.3081,1.3055,1.3047,1.3036,1.3025,1.3015,1.2992,1.2982,1.2959,1.2954,1.2937,1.2922,1.2896,1.2875,1.2856,1.2848,1.2854,1.2845,1.285,1.2846,1.2846,1.2844,1.2856,1.2856,1.2856,1.2856,0,1.3108,1.3097,1.3085,1.3068,1.3057,1.3043,1.3027,1.3022,1.2995,1.2985,1.2968,1.2956,1.2932,1.2914,1.2892,1.2878,1.2862,1.2859,1.2858,1.2864,1.2871,1.2865,1.2847,1.2859,1.2859,1.2859,1.2858,1.2858,1.3126,1.3121,1.3101,1.3087,1.3073,1.3058,1.305,1.3033,1.3019,1.2998,1.2985,1.2968,1.2946,1.2915,1.2902,1.2887,1.2881,1.288,1.2879,1.2879,1.288,1.2874,1.2883,1.2883,1.2883,1.2883,1.2882,0,1.3146,1.3132,1.3119,1.3098,1.3086,1.3073,1.3054,1.3045,1.3031,1.3013,1.2998,1.2977,1.2959,1.2935,1.2914,1.2907,1.2899,1.2902,1.2902,1.2898,1.2888,1.289,1.2909,1.2909,1.2909,1.2909,1.2909,1.2909,1.3155,1.3145,1.3132,1.3114,1.3099,1.3083,1.3074,1.3059,1.3044,1.3022,1.3007,1.2992,1.297,1.2948,1.2929,1.2923,1.2915,1.2921,1.2911,1.2902,1.2899,1.2897,1.2899,1.2919,1.2919,1.2923,1.2923,1.2923]}]]